陳-高彗星

C/2008 C1 ( Chen-Gao )

English version
Home page
Total 6,336 html files since Dec. 4, 1995
Updated on June 14, 2008

---------------------------------------------------------------------

・ プロフィール

発見日 2008年2月1日
発見光度 13.0等
発見者 陳韜(江蘇省蘇州市)、高興(新彊ウイグル自治区ウルムチ) 南山、星明天文台

・ 写真集

・ 軌道要素

Epoch 2008 Apr. 4.0 TT = JDT 2454560.5
T 2008 Apr. 16.84977 TT                                 MPC
q   1.2623592            (2000.0)            P               Q
z  -0.0000344      Peri.  180.92705     -0.61862242     -0.36370228
 +/-0.0000606      Node   307.78187     +0.72640742     +0.07301737
e   1.0000434      Incl.   61.78490     +0.29939699     -0.92864908

・ 星図

・ 光度変化

        m1 = 8.3 + 5 logΔ + 10.0 log r

---------------------------------------------------------------------

軌道要素はM.P.E.C. 2008-H03に掲載されたものです。
星図はステラナビゲータ Ver.8 (アストロアーツ) で作成したものです。
光度グラフはComet for Windowsで作成したものです。

---------------------------------------------------------------------

Copyright(C) 1995-2008 Seiichi Yoshida (comet@aerith.net). All rights reserved.